Weather History for Parkersburg, WV

Change the Weather History Date:

Monday, May 6, 2013

  Actual Average Record
Temperature  
Mean Temperature 62 °F 60 °F  
Max Temperature 68 °F 72 °F 93 °F (1959)
Min Temperature 56 °F 48 °F 33 °F (1973)
Degree Days  
Heating Degree Days 3 6  
Month to date heating degree days 9 40  
Since 1 July heating degree days 4879 4846  
Cooling Degree Days 0 1  
Month to date cooling degree days 1 6  
Year to date cooling degree days 30 27  
Growing Degree Days 12 (Base 50)    
Moisture  
Dew Point 49 °F    
Average Humidity 65    
Maximum Humidity 90    
Minimum Humidity 39    
Precipitation  
Precipitation 0.20 in 0.13 in 1.26 in (1967)
Month to date precipitation 0.20 0.76  
Year to date precipitation 10.03 13.41  
Sea Level Pressure  
Sea Level Pressure 29.99 in    
Wind  
Wind Speed 9 mph (ENE)    
Max Wind Speed 15 mph    
Max Gust Speed 20 mph    
Visibility 10 miles    
Events Rain    
T = Trace of Precipitation, MM = Missing Value Source: NWS Daily Summary

Daily Weather History Graph

Daily Weather History Graph

Search for Another Location

Airport:

Trip Planner

Search our weather history database for the weather conditions in past years. The results will help you decide how hot, cold, wet, or windy it might be!

Date:

Astronomy

May. 06, 2013 Rise Set
Actual Time 6:20 AM EDT 8:24 PM EDT
Civil Twilight 5:51 AM EDT 8:53 PM EDT
Nautical Twilight 5:15 AM EDT 9:29 PM EDT
Astronomical Twilight 4:36 AM EDT 10:09 PM EDT
Moon 4:21 AM EDT (5/6) 5:23 PM EDT (5/6)
Length of Visible Light 15h 02m
Length of Day
14h 03m
Waning Crescent, 11% of the Moon is Illuminated
May 6
Waning Crescent
May 9
New
May 18
First Quarter
May 25
Full
May 31
Last Quarter

Hourly Weather History & Observations

Time (EDT) Temp. Dew Point Humidity Pressure Visibility Wind Dir Wind Speed Gust Speed Precip Events Conditions
12:53 AM 63.0 °F 37.0 °F 38% 30.00 in 10.0 mi ESE 10.4 mph 19.6 mph N/A   Partly Cloudy
1:53 AM 61.0 °F 37.0 °F 41% 29.99 in 10.0 mi East 9.2 mph - N/A   Overcast
2:53 AM 55.9 °F 43.0 °F 62% 29.99 in 10.0 mi ENE 8.1 mph - 0.02 in   Overcast
3:53 AM 57.0 °F 41.0 °F 55% 29.98 in 10.0 mi East 9.2 mph - N/A   Overcast
4:53 AM 57.0 °F 41.0 °F 55% 29.98 in 10.0 mi East 9.2 mph - N/A   Partly Cloudy
5:53 AM 55.9 °F 42.1 °F 60% 29.99 in 10.0 mi ENE 8.1 mph - N/A   Mostly Cloudy
6:53 AM 55.9 °F 43.0 °F 62% 30.00 in 10.0 mi ENE 8.1 mph - N/A   Clear
7:53 AM 57.0 °F 43.0 °F 59% 30.01 in 10.0 mi ENE 6.9 mph - N/A   Partly Cloudy
8:53 AM 57.9 °F 44.1 °F 60% 30.00 in 10.0 mi ENE 6.9 mph - N/A   Scattered Clouds
9:53 AM 63.0 °F 46.0 °F 54% 30.00 in 10.0 mi East 12.7 mph - N/A   Partly Cloudy
10:53 AM 68.0 °F 48.0 °F 49% 29.99 in 10.0 mi East 13.8 mph 18.4 mph N/A   Partly Cloudy
11:53 AM 64.9 °F 48.9 °F 56% 30.01 in 10.0 mi East 12.7 mph 16.1 mph 0.00 in Rain Light Rain
12:53 PM 64.0 °F 53.1 °F 67% 30.00 in 9.0 mi ESE 5.8 mph - 0.01 in Rain Light Rain
1:53 PM 63.0 °F 55.0 °F 75% 29.99 in 7.0 mi NE 10.4 mph - 0.02 in Rain Light Rain
2:53 PM 61.0 °F 55.0 °F 81% 29.99 in 10.0 mi ENE 8.1 mph - 0.03 in Rain Light Rain
3:53 PM 61.0 °F 55.9 °F 83% 29.98 in 10.0 mi ENE 8.1 mph - 0.00 in Rain Light Rain
4:53 PM 61.0 °F 57.0 °F 87% 29.97 in 10.0 mi ENE 6.9 mph - 0.04 in Rain Light Rain
5:53 PM 60.1 °F 55.9 °F 86% 29.98 in 10.0 mi ENE 8.1 mph - 0.02 in Rain Light Rain
6:53 PM 60.1 °F 55.9 °F 86% 29.98 in 10.0 mi NE 6.9 mph - 0.01 in   Overcast
7:53 PM 59.0 °F 55.0 °F 87% 29.99 in 10.0 mi ENE 9.2 mph - 0.00 in Rain Light Rain
8:53 PM 57.9 °F 55.0 °F 90% 29.99 in 10.0 mi East 5.8 mph - 0.01 in   Overcast
9:53 PM 57.9 °F 55.0 °F 90% 30.01 in 9.0 mi East 11.5 mph - 0.00 in Rain Light Rain
10:53 PM 57.0 °F 54.0 °F 89% 30.01 in 8.0 mi East 5.8 mph - 0.02 in Rain Light Rain
11:53 PM 55.9 °F 55.0 °F 97% 29.99 in 10.0 mi ENE 8.1 mph - 0.02 in   Overcast